Estación de El Refugio

Ultimos registro cada 15 minutos 84
Estación Fecha / Hora Temperatura Humedad Lluvia Velocidad Dirección Radiación Presion
84 El Refugio 01-09-2026 21:15 15,6 74 0 0 250 0 1038,8
83 El Refugio 01-09-2026 21:00 15,9 75 0 0 250 0 1038,6
82 El Refugio 01-09-2026 20:45 16,2 75 0 0 250 0 1038,4
81 El Refugio 01-09-2026 20:30 16,4 72 0 0 250 0 1038,3
80 El Refugio 01-09-2026 20:15 16,5 71 0 0 250 0 1038,3
79 El Refugio 01-09-2026 20:00 16,7 70 0 0 250 0 1037,9
78 El Refugio 01-09-2026 19:45 16,9 70 0 0 250 0 1037,9
77 El Refugio 01-09-2026 19:30 17,3 69 0 0 250 0 1038,1
76 El Refugio 01-09-2026 19:15 17,6 67 0 0 250 0 1037,9
75 El Refugio 01-09-2026 19:00 18 66 0 0 250 0 1037,9
74 El Refugio 01-09-2026 18:45 18,5 64 0 0 250 0 1037,7
73 El Refugio 01-09-2026 18:30 19,2 61 0 0 250 0 1038,1
72 El Refugio 01-09-2026 18:15 19,8 59 0 0 250 0 1038
71 El Refugio 01-09-2026 18:00 20,6 59 0 0 250 14 1037,9
70 El Refugio 01-09-2026 17:45 21,6 54 0 0 250 23 1037,6
69 El Refugio 01-09-2026 17:15 22,3 51 0 0 250 58 1037,6
68 El Refugio 01-09-2026 17:00 22,7 45 0 0 250 44 1037,7
67 El Refugio 01-09-2026 16:45 23 42 0 0 250 86 1037,6
66 El Refugio 01-09-2026 16:30 23,2 41 0 0 250 102 1037,7
65 El Refugio 01-09-2026 16:15 23,3 39 0 0 250 111 1038
64 El Refugio 01-09-2026 16:00 23,6 38 0 0 250 156 1037,9
63 El Refugio 01-09-2026 15:45 23,8 38 0 0 250 178 1037,7
62 El Refugio 01-09-2026 15:30 23,9 37 0 0 250 229 1037,7
61 El Refugio 01-09-2026 15:15 23,9 36 0 0 250 294 1037,9
60 El Refugio 01-09-2026 15:00 23,5 39 0 0 250 336 1038
59 El Refugio 01-09-2026 14:45 23,3 39 0 0 250 404 1038,3
58 El Refugio 01-09-2026 14:30 22,9 40 0 0 308 473 1039,1
57 El Refugio 01-09-2026 14:15 22,9 40 0 0 308 473 1039,1
56 El Refugio 01-09-2026 14:00 22,7 43 0 0 309 487 1039,2
55 El Refugio 01-09-2026 13:45 22,3 45 0 0 309 501 1039,7
54 El Refugio 01-09-2026 13:30 22,3 45 0 0 309 548 1039,9
53 El Refugio 01-09-2026 13:15 22,1 48 0 0 309 503 1040,1
52 El Refugio 01-09-2026 13:00 21,4 51 0 0 309 870 1040,3
51 El Refugio 01-09-2026 12:45 20,7 53 0 0 288 784 1040,7
50 El Refugio 01-09-2026 12:30 20,7 51 0 0 281 765 1041,1
49 El Refugio 01-09-2026 12:15 20,2 57 0 0 281 756 1041,3
48 El Refugio 01-09-2026 12:00 19,8 57 0 0 281 770 1041,7
47 El Refugio 01-09-2026 11:45 19 61 0 0 281 383 1041,9
46 El Refugio 01-09-2026 11:30 18,4 61 0 0 281 499 1042
45 El Refugio 01-09-2026 11:15 18,2 64 0 0 281 686 1042,1
44 El Refugio 01-09-2026 11:00 17,8 63 0 0 281 411 1042,3
43 El Refugio 01-09-2026 10:45 17,5 64 0 0 281 387 1042,5
42 El Refugio 01-09-2026 10:30 16,8 65 0 0 281 731 1042,5
41 El Refugio 01-09-2026 10:15 16,1 66 0 0 288 731 1042,6
40 El Refugio 01-09-2026 10:00 15,7 67 0 0 288 269 1042,8
39 El Refugio 01-09-2026 09:45 15,4 70 0 0 288 207 1042,7
38 El Refugio 01-09-2026 09:30 14,9 73 0 0 288 265 1042,8
37 El Refugio 01-09-2026 09:15 14,3 74 0 0 288 116 1042,7
36 El Refugio 01-09-2026 09:00 13,7 76 0 0 288 267 1042,5
35 El Refugio 01-09-2026 08:45 12,6 81 0 0 288 359 1042,6
34 El Refugio 01-09-2026 08:30 11,1 84 0 0 288 248 1042,6
33 El Refugio 01-09-2026 08:15 9,7 90 0 0 288 179 1042,7
32 El Refugio 01-09-2026 08:00 7,7 95 0 0 288 125 1042,4
31 El Refugio 01-09-2026 07:45 6,2 93 0 0 288 35 1042,4
30 El Refugio 01-09-2026 07:30 6,1 91 0 0 288 9 1042,2
29 El Refugio 01-09-2026 07:15 6,4 91 0 0 288 5 1042
28 El Refugio 01-09-2026 07:00 6,6 92 0 0 288 0 1042
27 El Refugio 01-09-2026 06:45 6,5 91 0 0 288 0 1042
26 El Refugio 01-09-2026 06:30 6,6 91 0 0 288 0 1042
25 El Refugio 01-09-2026 06:15 6,7 91 0 0 288 0 1042
24 El Refugio 01-09-2026 06:00 6,8 90 0 0 288 0 1042,1
23 El Refugio 01-09-2026 05:45 7,1 91 0 0 288 0 1042
22 El Refugio 01-09-2026 05:30 7,3 91 0 0 288 0 1041,8
21 El Refugio 01-09-2026 05:15 7,3 90 0 0 288 0 1041,7
20 El Refugio 01-09-2026 05:00 7,5 90 0 0 288 0 1041,6
19 El Refugio 01-09-2026 04:30 7,9 89 0 0 288 0 1041,6
18 El Refugio 01-09-2026 04:15 8,4 89 0 0 288 0 1041,9
17 El Refugio 01-09-2026 04:00 9 88 0 0 288 0 1042,2
16 El Refugio 01-09-2026 03:45 9 88 0 0 288 0 1042,2
15 El Refugio 01-09-2026 03:30 9,5 88 0 0 288 0 1042,2
14 El Refugio 01-09-2026 03:15 9,8 88 0 0 288 0 1042,4
13 El Refugio 01-09-2026 03:00 10 89 0 0 288 0 1042,6
12 El Refugio 01-09-2026 02:45 10 89 0 0 288 0 1042,6
11 El Refugio 01-09-2026 02:30 9,9 89 0 0 288 0 1042,7
10 El Refugio 01-09-2026 02:15 9,9 88 0 0 288 0 1042,9
9 El Refugio 01-09-2026 02:00 10,3 87 0 0 288 0 1043,2
8 El Refugio 01-09-2026 01:45 10,3 87 0 0 288 0 1043,2
7 El Refugio 01-09-2026 01:30 10,3 87 0 0 288 0 1043,4
6 El Refugio 01-09-2026 01:15 10,4 87 0 0 288 0 1043,4
5 El Refugio 01-09-2026 01:00 10,7 86 0 0 288 0 1043,4
4 El Refugio 01-09-2026 00:45 10,7 86 0 0 288 0 1043,4
3 El Refugio 01-09-2026 00:30 10,7 86 0 0 288 0 1043,4
2 El Refugio 01-09-2026 00:15 10,7 86 0 0 288 0 1043,6
1 El Refugio 01-09-2026 00:00 9,8 88 0 0 266 0 1043,8